{"data":{"norad_id":66419,"intl_designator":"2025-258H","name":"HULIANWANG DIGUI-103","alt_names":[],"object_type":"PAYLOAD","status":"ACTIVE","operator":null,"country":"PRC","launch_date":"2025-11-10","launch_site_code":"WSC","launch_vehicle":null,"mission":null,"orbit_class":"UNKNOWN","rcs_meters":null,"size_class":null,"mass_kg":null,"dimensions":null,"purposes":[],"wikipedia_slug":null,"has_3d_model":false,"image_url":null,"decayed_at":null,"tle_current":{"epoch":"2026-05-25T00:36:04.885920Z","epoch_age_seconds":66827,"freshness":"FRESH","line1":"1 66419U 25258H   26145.02505655 -.00000088  00000+0  77400-4 0  9992","line2":"2 66419  50.0025  18.4172 0000924  63.8745 296.2222 13.29322572 26651","mean_motion":13.29322572,"eccentricity":9.24e-5,"inclination_deg":50.0025,"raan_deg":18.4172,"arg_perigee_deg":63.8745,"mean_anomaly_deg":296.2222,"bstar":7.74e-5,"rev_number":2665,"period_min":108.32585185351,"perigee_km":1148.6239758321,"apogee_km":1150.0150497956,"semimajor_km":7527.4565128138,"source":"CELESTRAK","updated_at":"2026-05-25T13:38:06.207164Z"}}}